Retour au catalogue

COSMOS 1579 COOLANT

LostLEO
NORAD 27913·DEBRIS·🇷🇺 Russia

Lancé Jun 29, 1984 depuis Baikonur Cosmodrome

Loading…

Prochains Passages (prochaines 24 heures)

TLE

PériméSource: Space-Track

Époque: Oct 18, 2018, 19:16 UTC

1 27913U 84069AF  18291.80324124 -.00000028  00000-0  48736-4 0  9997
2 27913  65.0466 356.9366 0062275 261.0260  98.3783 13.90747343794546

Suivez COSMOS 1579 COOLANT en temps réel avec AllMySat

Download on the App Store